User: anonymous   Login
Location: Crocus Hill
(18.2167°N, 63.0667°W)
Time: 12:51:02
(UTC+00:00)
Language:

Cosmos 1844 Rocket - Orbit

View from above orbital plane
View from above orbital plane
View from above satellite
View from above satellite

Ground track
Ground track

The orbit data is extracted from the following two-line orbital elements,

1 17974U 87041B   20098.87784108 +.00000071 +00000-0 +59068-4 0  9990
2 17974 071.0055 268.7755 0016225 267.3095 195.7669 14.17261465701802
Epoch (UTC): 07 April 2020 21:04:05
Eccentricity: 0.0016225
inclination: 71.0055°
perigee height: 823 km
apogee height: 846 km
right ascension of ascending node: 268.7755°
argument of perigee: 267.3095°
revolutions per day: 14.17261465
mean anomaly at epoch: 195.7669°
orbit number at epoch: 70180

The dashed part of the orbit path shows where the satellite is in the earth's shadow,  

DLR